Satellite: NOAA-18
Catalog number: 28654
Epoch time:      08142.74792713
Element set:    0436
Inclination:      098.8667 deg
RA of node:       084.0039 deg
Eccentricity:    0.0014969
Arg of perigee:   031.9083 deg
Mean anomaly:     328.2993 deg
Mean motion:   14.11165490 rev/day
Decay rate:       4.18e-06 rev/day^2
Epoch rev:           15474
Checksum:              335

/EX
SB KEPS @ AMSAT  $ORB08143.M
Orbital Elements  08143.MISC

HR AMSAT ORBITAL ELEMENTS FOR MANNED AND MISCELLANEOUS SATELLITES
FROM WA5QGD FORT WORTH,TX May 22, 2008
Send Subscribe/unsubscribe to KEPS at 
http://www.amsat.org/mailman/listinfo/keps
BID: ORB08143.M
TO ALL RADIO AMATEURS BT

Satellite: HUBBLE
Catalog number: 20580
Epoch time:      08142.40360793
Element set:    0151
Inclination:      028.4678 deg
RA of node:       137.9172 deg
Eccentricity:    0.0003815
Arg of perigee:   102.3188 deg
Mean anomaly:     257.7828 deg
Mean motion:   15.00379091 rev/day
Decay rate:       3.05e-06 rev/day^2
Epoch rev:           79095
Checksum:              295

Satellite: UARS
Catalog number: 21701
Epoch time:      08142.87662611
Element set:     370
Inclination:      056.9729 deg
RA of node:       276.1656 deg
Eccentricity:    0.0089391
Arg of perigee:   128.2859 deg
Mean anomaly:     232.6284 deg
Mean motion:   15.51826937 rev/day
Decay rate:      6.761e-05 rev/day^2
Epoch rev:           91841
Checksum:              334

Satellite: PO-34
Catalog number: 25520
Epoch time:      08143.80564661
Element set:     998
Inclination:      028.4593 deg
RA of node:       348.7081 deg
Eccentricity:    0.0005136
Arg of perigee:   008.6003 deg
Mean anomaly:     351.4678 deg
Mean motion:   15.17191437 rev/day
Decay rate:       3.74e-06 rev/day^2
Epoch rev:           52930
Checksum:              309

Satellite: ISS
Catalog number: 25544
Epoch time:      08143.32928241
Element set:     526
Inclination:      051.6376 deg
RA of node:       149.6881 deg
Eccentricity:    0.0005602
Arg of perigee:   240.3546 deg
Mean anomaly:     318.8778 deg
Mean motion:   15.76401038 rev/day
Decay rate:      8.455e-05 rev/day^2
Epoch rev:           54444
Checksum:              310

Satellite: OO-38
Catalog number: 26063
Epoch time:      08143.71747497
Element set:     216
Inclination:      100.1919 deg
RA of node:       213.7204 deg
Eccentricity:    0.0036546
Arg of perigee:   281.5202 deg
Mean anomaly:     078.1879 deg
Mean motion:   14.35835438 rev/day
Decay rate:       -2.7e-07 rev/day^2
Epoch rev:           43591
Checksum:              310

Satellite: UWE-1
Catalog number: 28892
Epoch time:      08142.69178309
Element set:    0053
Inclination:      098.1002 deg
RA of node:       036.9630 deg
Eccentricity:    0.0018299
Arg of perigee:   130.1041 deg
Mean anomaly:     230.1761 deg
Mean motion:   14.59628844 rev/day
Decay rate:       1.58e-06 rev/day^2
Epoch rev:           13673
Checksum:              297

Satellite: CO-58
Catalog number: 28895
Epoch time:      08142.66043113
Element set:    0027
Inclination:      098.1038 deg
RA of node:       037.2807 deg
Eccentricity:    0.0018921
Arg of perigee:   130.4538 deg
Mean anomaly:     229.8326 deg
Mean motion:   14.59668684 rev/day
Decay rate:        9.4e-07 rev/day^2
Epoch rev:           13661
Checksum:              324

Satellite: NCUBE2
Catalog number: 28897
Epoch time:      08142.21680553
Element set:    0558
Inclination:      098.0992 deg
RA of node:       036.7782 deg
Eccentricity:    0.0017816
Arg of perigee:   131.9558 deg
Mean anomaly:     228.3159 deg
Mean motion:   14.59838622 rev/day
Decay rate:        8.5e-07 rev/day^2
Epoch rev:           12883
Checksum:              347

Satellite: FCAL
Catalog number: 29667
Epoch time:      08143.72323539
Element set:     970
Inclination:      051.6088 deg
RA of node:       080.2141 deg
Eccentricity:    0.0005602
Arg of perigee:   267.9700 deg
Mean anomaly:     092.1383 deg
Mean motion:   16.36228340 rev/day
Decay rate:   1.314477e-02 rev/day^2
Epoch rev:            8248
Checksum:              299

Satellite: FALCON
Catalog number: 30776
Epoch time:      08143.80038792
Element set:     317
Inclination:      035.4352 deg
RA of node:       307.4580 deg
Eccentricity:    0.0000591
Arg of perigee:   242.9754 deg
Mean anomaly:     117.0902 deg
Mean motion:   15.02987427 rev/day
Decay rate:       3.92e-06 rev/day^2
Epoch rev:            6632
Checksum:              289

Satellite: MAST
Catalog number: 31126
Epoch time:      08143.21853006
Element set:     332
Inclination:      098.0393 deg
RA of node:       208.6877 deg
Eccentricity:    0.0095666
Arg of perigee:   052.9568 deg
Mean anomaly:     308.0352 deg
Mean motion:   14.53424031 rev/day
Decay rate:       1.36e-06 rev/day^2
Epoch rev:            5824
Checksum:              285

Satellite: CAPE1
Catalog number: 31130
Epoch time:      08142.93650639
Element set:    0325
Inclination:      098.0403 deg
RA of node:       207.4884 deg
Eccentricity:    0.0103879
Arg of perigee:   056.9966 deg
Mean anomaly:     304.1140 deg
Mean motion:   14.51962248 rev/day
Decay rate:       -4.5e-07 rev/day^2
Epoch rev:           05791
Checksum:              298

